Change the Weather History Date:

Monday, July 1, 2013

  Actual Average Record
Temperature  
Mean Temperature 82 °F -  
Max Temperature 90 °F 87 °F 93 °F (2001)
Min Temperature 73 °F 75 °F 70 °F (2012)
Cooling Degree Days 16    
Growing Degree Days 32 (Base 50)    
Moisture  
Dew Point 73 °F    
Average Humidity 80    
Maximum Humidity 94    
Minimum Humidity 55    
Precipitation  
Precipitation 0.67 in - - ()
Sea Level Pressure  
Sea Level Pressure 29.87 in    
Wind  
Wind Speed 5 mph ()    
Max Wind Speed 13 mph    
Max Gust Speed -    
Visibility 7.0 miles    
Events Rain , Thunderstorm    
Averages and records for this station are not official NWS values.
T = Trace of Precipitation, MM = Missing Value Source: Averaged Metar Reports

Daily Weather History Graph

Daily Weather History Graph

Search for Another Location

Airport or City:

Trip Planner

Search our weather history database for the weather conditions in past years. The results will help you decide how hot, cold, wet, or windy it might be!

Date:

Astronomy

Jul. 01, 2013 Rise Set
Actual Time 5:24 AM CST 6:08 PM CST
Civil Twilight 5:01 AM CST 6:31 PM CST
Nautical Twilight 4:33 AM CST 6:58 PM CST
Astronomical Twilight 4:06 AM CST 7:25 PM CST
Moon 12:14 AM CST (7/1) 12:55 PM CST (7/1)
Length of Visible Light 13h 30m
Length of Day
12h 44m
Waning Crescent, 35% of the Moon is Illuminated
Jul 1
Waning Crescent
Jul 8
New
Jul 15
First Quarter
Jul 22
Full
Jul 29
Last Quarter

Hourly Weather History & Observations

Time (CST) Temp. Heat Index Dew Point Humidity Pressure Visibility Wind Dir Wind Speed Gust Speed Precip Events Conditions
6:00 AM 74 °F - 72 °F 93% 29.87 in 12 mi ESE 3.5 mph - -   Overcast
6:00 AM 75.2 °F - 71.6 °F 89% 29.86 in 6.2 mi ESE 3.5 mph - N/A   Mostly Cloudy
7:00 AM 77.0 °F - 73.4 °F 89% 29.90 in 6.2 mi SSE 3.5 mph - N/A   Mostly Cloudy
8:00 AM 82.4 °F 89.5 °F 75.2 °F 79% 29.90 in 6.2 mi SE 3.5 mph - N/A   Mostly Cloudy
9:00 AM 81 °F - 74 °F 75% 29.93 in 12 mi SSE 5.8 mph - -   Partly Cloudy
9:00 AM 80.6 °F 86.2 °F 75.2 °F 84% 29.92 in 6.2 mi SSE 5.8 mph - N/A   Mostly Cloudy
10:00 AM 84.2 °F 92.3 °F 75.2 °F 74% 29.91 in 6.2 mi SSE 6.9 mph - N/A   Mostly Cloudy
11:00 AM 84.2 °F 89.6 °F 71.6 °F 66% 29.90 in 6.2 mi SE 6.9 mph - N/A   Mostly Cloudy
12:00 PM 86 °F - 74 °F 59% 29.88 in 12 mi SSE 5.8 mph - -   Partly Cloudy
12:00 PM 86.0 °F 93.4 °F 73.4 °F 66% 29.87 in 6.2 mi SSE 5.8 mph - N/A   Scattered Clouds
1:00 PM 89.6 °F 99.8 °F 75.2 °F 62% 29.85 in 6.2 mi SSE 4.6 mph - N/A   Mostly Cloudy
2:00 PM 89.6 °F 96.2 °F 71.6 °F 55% 29.82 in 6.2 mi ESE 3.5 mph - N/A   Mostly Cloudy
3:00 PM 86.0 °F 95.1 °F 75.2 °F 70% 29.80 in 6.2 mi West 12.7 mph - N/A   Scattered Clouds
4:00 PM 82.4 °F 88.2 °F 73.4 °F 74% 29.80 in 6.2 mi West 12.7 mph - N/A Rain , Thunderstorm Thunderstorms and Rain
4:15 PM 78.8 °F - 73.4 °F 83% 29.82 in 6.2 mi WSW 9.2 mph - N/A Rain Rain
4:25 PM 75.2 °F - 71.6 °F 89% 29.83 in 3.1 mi South 9.2 mph - N/A Rain Rain
5:00 PM 75.2 °F - 71.6 °F 89% 29.83 in 6.2 mi NNW 4.6 mph - N/A Rain , Thunderstorm Light Rain
6:00 PM 75 °F - 72 °F 88% 29.88 in 9 mi East 10.4 mph - - Rain Light Rain
6:00 PM 75.2 °F - 71.6 °F 89% 29.86 in 6.2 mi East 10.4 mph - N/A Rain , Thunderstorm Light Rain
6:15 PM 73.4 °F - 69.8 °F 88% 29.87 in 6.2 mi East 6.9 mph - N/A Rain , Thunderstorm Thunderstorms and Rain
7:00 PM 73.4 °F - 71.6 °F 94% 29.88 in 6.2 mi ENE 3.5 mph - N/A Rain Light Rain
8:00 PM 73.4 °F - 71.6 °F 94% 29.90 in 6.2 mi NNE 4.6 mph - N/A Rain Light Rain